• In Deutschland
  • Länderverzeichnis
  • Für 7 Tage
  • Wassertemperatur
  • Satellitenkarten
  • Wetterkarte
  • Widgets
  • user-avatar
    Anmelden

    Stündliche Wetter Rodgau

    Heute, 11 Dezember, Montag

    Zeit Temperatur Niederschläge Wind Luftdruck Luftfeuchtigkeit
    00:00 +4°C° 0,7 mm 6 m/S 724 mmHg 90%
    01:00 +4°C° 0,7 mm 6 m/S 724 mmHg 89%
    02:00 +5°C° 0,3 mm 5 m/S 725 mmHg 91%
    03:00 +4°C° 0,3 mm 4 m/S 725 mmHg 93%
    04:00 +5°C° 0,3 mm 2 m/S 726 mmHg 95%
    05:00 +5°C° 0,2 mm 2 m/S 725 mmHg 95%
    06:00 +4°C° 0,2 mm 2 m/S 725 mmHg 96%
    07:00 +5°C° 0,2 mm 1 m/S 725 mmHg 97%
    08:00 +4°C° 1,7 mm 2 m/S 724 mmHg 97%
    09:00 +4°C° 1,7 mm 2 m/S 724 mmHg 96%
    10:00 +3°C° 1,7 mm 3 m/S 724 mmHg 96%
    11:00 +3°C° 2,3 mm 3 m/S 723 mmHg 94%
    12:00 +4°C° 2,3 mm 4 m/S 723 mmHg 92%
    13:00 +4°C° 2,3 mm 4 m/S 722 mmHg 90%
    14:00 +4°C° 0,5 mm 3 m/S 723 mmHg 90%
    15:00 +4°C° 0,5 mm 3 m/S 723 mmHg 90%
    16:00 +4°C° 0,5 mm 3 m/S 723 mmHg 90%
    17:00 +4°C° 0,5 mm 3 m/S 724 mmHg 91%
    18:00 +5°C° 0,5 mm 3 m/S 724 mmHg 91%
    19:00 +5°C° 0,5 mm 4 m/S 725 mmHg 92%
    20:00 +5°C° 0,1 mm 4 m/S 725 mmHg 88%
    21:00 +5°C° 0,1 mm 4 m/S 725 mmHg 85%
    22:00 +5°C° 0,1 mm 5 m/S 725 mmHg 81%
    23:00 +5°C° 0 mm 5 m/S 726 mmHg 80%

    Morgen, 12 Dezember, Dienstag

    Zeit Temperatur Niederschläge Wind Luftdruck Luftfeuchtigkeit
    00:00 +4°C° 0 mm 6 m/S 726 mmHg 79%
    01:00 +4°C° 0 mm 6 m/S 727 mmHg 78%
    02:00 +3°C° 0,1 mm 6 m/S 728 mmHg 78%
    03:00 +2°C° 0,1 mm 7 m/S 729 mmHg 78%
    04:00 +2°C° 0,1 mm 7 m/S 731 mmHg 79%
    05:00 +2°C° 0,1 mm 7 m/S 733 mmHg 78%
    06:00 +1°C° 0,1 mm 6 m/S 734 mmHg 78%
    07:00 +1°C° 0,1 mm 6 m/S 736 mmHg 78%
    08:00 +1°C° 0 mm 6 m/S 738 mmHg 77%
    09:00 +1°C° 0 mm 5 m/S 739 mmHg 77%
    10:00 +1°C° 0 mm 5 m/S 741 mmHg 76%
    11:00 +1°C° 0 mm 5 m/S 741 mmHg 74%
    12:00 +2°C° 0 mm 5 m/S 742 mmHg 73%
    13:00 +2°C° 0 mm 6 m/S 743 mmHg 71%
    14:00 +2°C° 0 mm 5 m/S 743 mmHg 73%
    15:00 +2°C° 0 mm 5 m/S 744 mmHg 75%
    16:00 +1°C° 0 mm 5 m/S 745 mmHg 76%
    17:00 +1°C° 0 mm 4 m/S 746 mmHg 77%
    18:00 0°C° 0 mm 4 m/S 746 mmHg 78%
    19:00 0°C° 0 mm 4 m/S 747 mmHg 79%
    20:00 +1°C° 0 mm 3 m/S 748 mmHg 81%
    21:00 0°C° 0 mm 3 m/S 748 mmHg 83%
    22:00 0°C° 0 mm 3 m/S 749 mmHg 86%
    23:00 0°C° 0 mm 3 m/S 749 mmHg 87%

    übermorgen, 13 Dezember, Mittwoch

    Zeit Temperatur Niederschläge Wind Luftdruck Luftfeuchtigkeit
    00:00 0°C° 0 mm 3 m/S 749 mmHg 88%
    01:00 -1°C° 0 mm 3 m/S 749 mmHg 90%
    02:00 -1°C° 0 mm 3 m/S 749 mmHg 90%
    03:00 -1°C° 0 mm 3 m/S 749 mmHg 90%
    04:00 -1°C° 0 mm 3 m/S 749 mmHg 90%
    05:00 -2°C° 0 mm 4 m/S 748 mmHg 89%
    06:00 -1°C° 0 mm 4 m/S 748 mmHg 88%
    07:00 -1°C° 0 mm 4 m/S 748 mmHg 87%
    08:00 -1°C° 0 mm 4 m/S 747 mmHg 84%
    09:00 0°C° 0 mm 5 m/S 747 mmHg 81%
    10:00 0°C° 0 mm 5 m/S 747 mmHg 78%
    11:00 +1°C° 0,1 mm 5 m/S 746 mmHg 75%
    12:00 +1°C° 0,1 mm 5 m/S 745 mmHg 72%
    13:00 +2°C° 0,1 mm 6 m/S 744 mmHg 68%
    14:00 +2°C° 0,7 mm 6 m/S 743 mmHg 72%
    15:00 +2°C° 0,7 mm 6 m/S 742 mmHg 77%
    16:00 +1°C° 0,7 mm 6 m/S 742 mmHg 81%
    17:00 +2°C° 0,4 mm 5 m/S 741 mmHg 83%
    18:00 +2°C° 0,4 mm 5 m/S 741 mmHg 85%
    19:00 +2°C° 0,4 mm 5 m/S 740 mmHg 87%
    20:00 +2°C° 0,6 mm 5 m/S 740 mmHg 88%
    21:00 +3°C° 0,6 mm 6 m/S 739 mmHg 88%
    22:00 +3°C° 0,6 mm 6 m/S 739 mmHg 88%
    23:00 +3°C° 1 mm 6 m/S 738 mmHg 89%

    14 Dezember, Donnerstag

    Zeit Temperatur Niederschläge Wind Luftdruck Luftfeuchtigkeit
    00:00 +4°C° 1 mm 6 m/S 738 mmHg 89%
    01:00 +5°C° 1 mm 5 m/S 738 mmHg 89%
    02:00 +3°C° 0,6 mm 5 m/S 738 mmHg 89%
    03:00 +3°C° 0,6 mm 5 m/S 738 mmHg 89%
    04:00 +3°C° 0,6 mm 5 m/S 738 mmHg 88%
    05:00 +4°C° 0 mm 4 m/S 738 mmHg 87%
    06:00 +3°C° 0 mm 4 m/S 738 mmHg 86%
    07:00 +2°C° 0 mm 3 m/S 738 mmHg 85%
    08:00 +3°C° 0 mm 4 m/S 738 mmHg 85%
    09:00 +3°C° 0 mm 4 m/S 737 mmHg 85%
    10:00 +2°C° 0 mm 5 m/S 737 mmHg 85%
    11:00 +3°C° 0 mm 6 m/S 736 mmHg 81%
    12:00 +4°C° 0 mm 6 m/S 735 mmHg 78%
    13:00 +5°C° 0 mm 7 m/S 734 mmHg 74%
    14:00 +5°C° 0,4 mm 7 m/S 733 mmHg 75%
    15:00 +5°C° 0,4 mm 7 m/S 732 mmHg 76%
    16:00 +4°C° 0,4 mm 7 m/S 731 mmHg 77%
    17:00 +4°C° 1,5 mm 6 m/S 731 mmHg 77%
    18:00 +3°C° 1,5 mm 5 m/S 731 mmHg 77%
    19:00 +3°C° 1,5 mm 4 m/S 731 mmHg 76%
    20:00 +3°C° 0,1 mm 4 m/S 731 mmHg 77%
    21:00 +1°C° 0,1 mm 4 m/S 732 mmHg 78%
    22:00 +1°C° 0,1 mm 4 m/S 733 mmHg 78%
    23:00 +1°C° 0 mm 4 m/S 734 mmHg 79%

    15 Dezember, Freitag

    Zeit Temperatur Niederschläge Wind Luftdruck Luftfeuchtigkeit
    00:00 0°C° 0 mm 4 m/S 734 mmHg 79%
    01:00 0°C° 0 mm 4 m/S 735 mmHg 80%
    02:00 -1°C° 0 mm 4 m/S 735 mmHg 80%
    03:00 -1°C° 0 mm 4 m/S 736 mmHg 81%
    04:00 -1°C° 0 mm 4 m/S 736 mmHg 81%
    05:00 -1°C° 0 mm 4 m/S 737 mmHg 82%
    06:00 -1°C° 0 mm 4 m/S 737 mmHg 83%
    07:00 0°C° 0 mm 4 m/S 738 mmHg 84%
    08:00 0°C° 0 mm 4 m/S 738 mmHg 85%
    09:00 0°C° 0 mm 4 m/S 738 mmHg 85%
    10:00 0°C° 0 mm 4 m/S 739 mmHg 85%
    11:00 +1°C° 0 mm 4 m/S 738 mmHg 84%
    12:00 +1°C° 0 mm 4 m/S 738 mmHg 82%
    13:00 +2°C° 0 mm 3 m/S 738 mmHg 80%
    14:00 +2°C° 0 mm 3 m/S 738 mmHg 81%
    15:00 +2°C° 0 mm 3 m/S 738 mmHg 82%
    16:00 +3°C° 0 mm 2 m/S 737 mmHg 84%
    17:00 +2°C° 0 mm 2 m/S 738 mmHg 85%
    18:00 +2°C° 0 mm 2 m/S 738 mmHg 86%
    19:00 +2°C° 0 mm 2 m/S 738 mmHg 87%
    20:00 +2°C° 0 mm 2 m/S 739 mmHg 88%
    21:00 +2°C° 0 mm 2 m/S 739 mmHg 89%
    22:00 +1°C° 0 mm 2 m/S 739 mmHg 90%
    23:00 +1°C° 0,1 mm 2 m/S 739 mmHg 90%

    16 Dezember, Samstag

    Zeit Temperatur Niederschläge Wind Luftdruck Luftfeuchtigkeit
    00:00 +2°C° 0,1 mm 2 m/S 740 mmHg 90%
    01:00 +2°C° 0,1 mm 2 m/S 740 mmHg 90%
    02:00 +2°C° 0,1 mm 2 m/S 740 mmHg 91%
    03:00 +2°C° 0,1 mm 2 m/S 741 mmHg 92%
    04:00 +2°C° 0,1 mm 2 m/S 741 mmHg 92%
    05:00 +1°C° 0 mm 2 m/S 741 mmHg 92%
    06:00 +1°C° 0 mm 2 m/S 742 mmHg 92%
    07:00 +1°C° 0 mm 2 m/S 742 mmHg 91%
    08:00 +1°C° 0 mm 2 m/S 743 mmHg 90%
    09:00 +1°C° 0 mm 2 m/S 743 mmHg 89%
    10:00 +1°C° 0 mm 2 m/S 744 mmHg 88%
    11:00 +2°C° 0 mm 2 m/S 744 mmHg 86%
    12:00 +2°C° 0 mm 2 m/S 745 mmHg 84%
    13:00 +2°C° 0 mm 3 m/S 745 mmHg 82%
    14:00 +2°C° 0 mm 3 m/S 745 mmHg 83%
    15:00 +2°C° 0 mm 3 m/S 745 mmHg 84%
    16:00 +1°C° 0 mm 3 m/S 746 mmHg 85%
    17:00 +1°C° 0 mm 3 m/S 746 mmHg 86%
    18:00 +2°C° 0 mm 2 m/S 747 mmHg 87%
    19:00 +2°C° 0 mm 2 m/S 747 mmHg 88%
    20:00 +2°C° 0 mm 2 m/S 747 mmHg 89%
    21:00 0°C° 0 mm 3 m/S 748 mmHg 90%
    22:00 0°C° 0 mm 3 m/S 748 mmHg 90%
    23:00 0°C° 0,1 mm 3 m/S 748 mmHg 90%
    Mehr zeigen